Helicity
80 42 2 13 -3 -14 10 42 67 132 26 61 22 15 71 96 14 37 61 86 207 102 90 64 47 60 68 60 56 53 58 53 67 77 67 65 74 53 50 68 74 43 40 24 41 72 64 46 53
53 69 14 16 4 -12 32 64 19 328 72 26 33 -37 -15 41 62 60 102 125 188 95 62 67 64 49 53 55 62 53 64 66 74 75 68 66 47 38 51 56 61 61 61 57 32 68 69 62 44
48 48 54 -6 12 25 68 116 199 57 31 -1 -11 -10 19 18 34 79 86 142 76 68 62 70 64 76 59 52 56 61 76 78 77 67 61 39 29 30 37 40 53 68 79 60 40 60 68 69 40
35 11 28 42 11 60 51 51 48 6 31 35 9 48 12 32 49 11 108 98 76 23 70 63 56 79 79 74 60 80 86 83 78 64 56 40 28 27 28 37 56 70 71 45 50 43 47 60 43
19 20 23 9 12 124 93 107 87 70 33 16 4 27 61 35 73 76 103 75 58 37 47 64 72 70 81 99 106 99 96 91 77 63 49 32 14 28 41 69 72 65 79 54 31 40 39 52 13
38 4 18 7 8 141 93 99 82 43 48 26 29 21 75 52 86 91 88 48 42 76 44 51 63 70 77 91 101 106 105 92 77 71 58 38 44 56 72 70 84 73 64 60 39 18 36 35 -5
38 18 29 32 53 72 122 95 91 73 23 10 39 20 83 16 101 100 97 71 74 59 61 49 38 41 83 92 112 104 106 98 84 79 73 67 66 54 65 61 73 69 65 53 43 26 29 30 -7
66 45 45 34 64 142 172 71 96 55 57 115 113 76 55 87 100 125 107 106 90 69 65 59 61 38 40 43 100 102 96 94 88 89 88 82 63 53 59 62 68 59 56 47 49 24 27 32 -5
45 52 28 -0 54 124 105 102 97 103 44 84 143 218 162 92 85 131 153 141 93 71 67 60 55 63 49 47 71 88 99 87 86 82 70 6 36 4 7 114 71 71 65 50 36 52 29 19 -22
49 29 88 199 199 101 84 120 123 61 183 238 259 160 160 107 82 152 134 156 162 127 79 72 57 54 59 60 50 53 53 41 34 42 6 -20 2 56 58 79 77 69 61 45 43 42 -5 -16 7
32 64 91 112 209 154 73 121 235 236 221 168 165 324 103 90 142 174 130 153 147 133 114 78 76 89 46 75 55 58 47 55 49 45 -2 88 61 85 53 50 38 50 27 20 10 20 5 5 17
50 98 138 98 132 106 112 173 187 235 232 133 168 269 299 112 86 94 86 100 136 122 113 95 98 94 63 89 56 52 72 82 67 17 34 55 37 29 64 7 18 32 -1 37 30 16 47 41 35
45 110 104 93 68 127 105 147 144 215 158 121 126 229 332 397 355 163 118 46 63 66 107 115 114 95 71 84 66 72 86 90 50 57 50 39 37 14 13 9 63 7 24 20 27 54 36 40 32
143 127 93 116 113 119 96 135 70 126 132 114 135 197 253 375 410 318 328 243 211 149 92 106 118 95 71 68 89 99 98 80 113 70 57 43 42 33 37 61 33 4 29 34 50 47 41 35 38
116 55 56 118 122 97 176 65 192 164 124 121 104 124 175 269 314 363 336 309 270 191 107 58 95 105 102 65 98 101 70 91 95 60 66 40 54 59 45 52 38 34 31 52 56 48 41 48 32
45 64 60 110 89 110 93 138 154 157 186 164 135 146 103 180 259 269 296 299 271 190 196 170 41 88 126 86 126 93 98 90 89 62 68 44 44 52 38 54 47 51 49 45 52 36 49 51 40
60 73 27 127 107 191 76 158 186 162 169 174 135 147 202 143 148 187 237 257 266 248 251 208 171 54 80 99 110 123 151 94 116 95 90 50 36 46 28 61 44 72 52 49 56 47 48 58 57
93 74 178 190 135 152 123 151 170 208 200 182 189 153 183 234 200 165 147 182 212 229 237 271 211 200 98 82 107 120 109 74 83 95 77 75 51 41 41 49 57 73 52 65 64 67 57 62 60
223 306 211 173 252 148 107 182 91 173 191 200 203 206 179 191 215 191 172 171 139 173 243 275 240 232 162 121 137 165 137 122 98 72 57 79 51 66 57 62 68 63 62 71 81 70 67 63 75
186 203 138 242 121 139 132 110 92 18 197 237 238 208 198 173 187 230 215 184 206 152 230 226 259 233 195 199 207 220 190 141 131 119 46 66 86 92 70 58 77 73 57 84 86 77 72 62 74
133 251 323 235 214 46 80 126 103 158 109 107 194 208 203 198 180 179 232 224 172 197 133 203 244 263 202 213 250 189 181 169 164 179 153 57 98 114 71 66 81 98 54 99 90 74 57 64 65
142 158 119 104 125 172 131 212 57 196 34 63 155 241 236 230 193 151 165 223 207 169 181 107 167 243 238 201 205 219 186 188 183 144 170 163 118 79 68 91 84 96 91 110 109 79 77 71 90
186 84 63 63 74 95 109 106 96 129 90 156 187 161 194 197 167 192 164 145 183 170 177 190 124 159 228 227 227 302 233 220 238 215 200 173 175 121 78 126 105 105 110 89 105 92 90 86 75
46 26 9 12 33 80 16 49 68 211 378 373 194 143 134 163 166 126 117 108 111 130 146 175 200 150 145 201 227 280 330 180 203 187 182 160 156 164 116 126 172 128 114 121 108 93 83 83 72
60 48 35 34 38 17 139 178 228 172 230 218 149 116 99 117 144 162 153 103 81 79 110 123 187 222 173 175 215 266 339 166 105 171 148 177 212 176 179 159 172 162 115 119 109 98 95 93 72
24 51 96 88 105 122 88 61 163 165 145 121 127 107 88 91 93 108 129 131 97 80 56 73 136 188 198 208 196 236 361 362 124 84 149 147 210 253 189 158 149 122 122 103 111 117 106 89 94
53 58 83 78 44 106 87 151 188 228 150 60 38 59 70 71 66 63 66 91 118 79 71 49 77 127 175 188 224 236 323 348 300 115 129 133 187 229 189 182 167 149 155 134 118 137 95 95 102
20 46 50 68 108 83 47 41 238 211 136 117 86 66 53 46 32 46 61 69 63 66 64 77 64 75 116 179 182 221 215 319 258 189 159 149 175 209 258 231 159 147 165 89 117 156 132 151 88
57 61 62 65 57 118 68 98 25 50 93 115 142 105 35 -14 29 61 49 59 70 85 77 93 85 95 82 127 188 213 342 318 293 199 186 170 209 164 221 141 127 115 100 179 160 152 100 129 92
66 74 42 48 82 109 118 48 80 50 115 46 23 68 56 44 50 47 64 73 101 111 96 79 75 96 81 123 175 221 305 324 284 249 192 162 144 212 54 22 -37 62 38 98 36 198 29 54 102
Wind_Speed
55 52 49 47 36 29 30 20 20 44 16 23 21 32 32 35 32 29 28 15 12 24 30 27 24 26 25 21 19 14 15 15 12 14 15 19 23 24 28 31 37 44 52 53 53 52 47 46 43
53 52 50 48 49 26 26 17 32 32 19 21 24 29 29 31 35 24 21 22 29 12 28 24 24 26 25 22 20 17 16 15 13 13 15 20 24 24 30 33 34 41 49 52 52 49 43 42 40
53 53 49 36 65 64 34 26 25 32 33 27 27 31 34 33 30 24 29 37 39 41 20 21 22 24 24 23 18 17 14 14 12 12 14 18 24 26 29 31 33 37 44 48 50 45 37 37 36
43 40 47 50 62 38 30 24 25 22 30 29 30 26 30 36 24 27 42 40 42 42 40 20 22 24 25 21 18 14 14 13 11 10 13 15 19 25 27 29 30 35 41 45 48 44 34 35 33
46 45 58 36 69 23 30 28 33 33 27 26 30 30 31 31 26 37 45 41 35 36 24 23 14 16 18 21 18 14 14 12 12 11 11 14 16 22 24 27 28 30 35 39 45 43 35 34 35
54 48 62 67 38 21 24 32 31 28 31 33 35 37 30 25 27 34 38 43 42 38 38 29 6 15 15 14 12 13 12 12 11 12 12 11 15 18 21 23 26 25 30 36 40 45 36 35 34
53 57 69 69 30 26 19 35 32 37 37 35 31 37 25 15 23 31 31 33 37 34 36 41 40 18 14 6 8 8 6 6 7 10 11 13 14 16 19 21 23 22 26 32 37 42 37 31 33
50 59 69 70 61 26 24 31 36 40 32 32 36 35 22 10 23 27 29 29 29 32 27 26 23 32 18 5 6 3 2 3 4 7 9 11 13 14 16 18 19 20 21 27 31 37 38 32 26
45 59 64 60 44 24 26 30 35 36 34 26 32 37 33 9 19 21 23 23 23 21 21 25 25 6 19 16 9 3 2 3 3 6 7 10 12 11 14 15 17 17 18 20 26 29 33 37 35
52 55 43 33 27 30 32 38 42 43 22 33 44 43 23 12 2 9 12 14 15 16 16 14 16 21 5 8 13 13 6 1 5 5 4 9 10 11 12 14 15 15 16 18 22 28 37 41 36
42 56 29 31 34 42 34 29 38 44 27 41 48 56 21 16 19 12 10 8 9 11 7 11 9 8 11 4 7 4 5 4 7 5 11 12 10 8 12 13 12 13 13 14 19 24 33 35 29
41 42 42 32 34 37 37 30 33 32 35 38 39 35 29 22 20 18 11 13 12 12 11 10 11 9 8 7 6 12 7 2 9 10 17 14 16 12 9 14 11 11 9 11 10 14 17 18 21
39 30 35 34 34 38 30 36 25 35 35 33 33 31 30 32 31 29 35 24 19 20 15 15 11 10 10 8 7 10 11 13 4 6 14 15 18 17 12 13 10 17 11 10 12 17 14 16 18
31 34 35 37 33 35 38 35 35 39 36 32 32 30 30 30 31 33 34 43 40 39 25 18 17 17 16 15 11 12 20 18 17 16 13 15 22 22 21 18 15 16 19 17 17 14 14 14 15
29 29 35 41 42 39 41 34 39 41 36 35 32 30 28 30 31 31 38 41 43 44 48 48 22 20 21 21 18 16 19 23 23 24 13 17 20 22 21 16 23 22 20 19 19 15 16 17 16
34 43 47 39 41 36 38 42 37 39 38 36 35 34 30 30 31 35 37 41 43 44 51 54 38 20 23 27 24 22 21 22 28 30 21 24 22 18 25 22 19 21 19 20 21 20 18 18 19
38 53 43 42 42 48 44 40 41 37 36 39 36 36 37 34 33 37 40 41 45 44 49 49 51 37 31 24 30 30 21 21 23 32 31 26 27 26 26 22 23 22 24 24 23 25 25 22 23
54 44 46 53 44 49 51 48 45 42 40 40 41 40 40 42 42 42 42 42 45 46 47 49 52 52 48 32 29 31 31 22 19 22 26 26 32 28 32 34 26 19 25 24 26 28 28 29 26
47 50 53 46 51 59 56 58 50 47 46 45 44 46 46 47 47 47 48 47 47 49 52 52 56 55 48 50 33 32 32 35 30 28 27 25 22 24 28 38 33 24 26 25 22 26 30 32 28
49 52 53 54 53 58 60 62 51 48 46 46 48 50 52 53 54 54 54 53 54 53 55 57 58 57 55 52 45 37 29 27 40 30 32 34 30 26 27 30 24 23 21 22 27 32 31 31 29
47 53 53 61 64 68 67 74 62 48 48 45 47 51 54 57 60 59 60 59 58 58 57 60 62 62 59 59 56 46 37 41 37 29 38 47 48 44 34 34 33 26 31 23 24 24 28 30 30
59 46 57 65 69 73 45 85 63 43 50 47 50 55 59 62 62 62 63 64 63 62 61 60 62 65 62 61 64 63 39 41 34 32 30 31 50 48 49 39 44 37 31 31 26 27 28 35 34
53 59 64 66 72 75 78 80 76 39 55 51 57 59 62 64 66 67 67 67 66 66 67 66 65 66 66 66 64 66 52 43 42 35 28 36 40 22 55 41 38 40 33 34 32 29 29 35 41
52 60 61 60 66 83 78 77 78 51 55 60 64 64 65 67 69 69 69 70 70 70 70 71 71 70 68 69 70 72 77 59 43 50 46 36 42 34 35 31 34 37 40 36 32 32 31 33 42
53 54 59 55 57 73 47 61 50 44 49 59 69 72 71 71 73 75 76 76 76 76 76 75 75 77 73 73 71 75 78 59 60 46 54 47 47 46 38 37 42 38 43 37 35 36 36 32 33
46 46 49 60 61 59 39 63 48 39 47 57 65 71 71 73 75 78 80 81 80 80 80 79 80 81 78 76 75 73 77 68 61 58 59 56 47 44 40 38 48 39 49 40 39 45 39 38 41
34 31 40 47 45 60 58 47 35 38 53 57 62 67 72 74 78 81 82 83 85 84 83 83 83 82 81 79 77 73 72 68 65 58 47 52 51 48 45 42 45 48 49 49 44 49 46 51 44
27 32 22 18 52 63 55 60 46 54 57 63 68 71 73 80 84 83 83 87 87 86 86 85 83 84 82 81 77 76 72 69 67 66 61 59 52 46 41 46 50 54 49 50 51 51 61 60 55
28 26 24 19 15 41 72 54 40 52 66 73 74 78 80 79 77 81 84 86 87 86 84 85 84 85 84 81 79 76 75 71 66 64 58 51 41 43 48 37 54 52 55 39 53 65 69 63 75
24 25 24 23 24 20 30 35 49 54 60 71 75 71 70 72 73 72 79 82 82 83 84 84 84 85 83 81 79 76 73 68 63 57 52 48 47 36 36 41 43 55 57 47 35 56 65 75 75
Wind_Direction
270 267 266 271 293 313 301 329 320 239 17 0 358 332 344 342 330 336 57 6 74 91 102 97 92 96 98 95 89 83 76 69 66 69 59 46 38 33 36 39 48 59 79 81 75 69 57 53 45
273 262 265 274 275 273 321 346 302 312 20 11 356 342 344 332 351 28 42 75 92 101 101 99 98 100 101 99 95 87 79 73 71 70 57 43 39 33 43 45 46 56 74 78 75 67 54 50 45
266 256 273 283 237 245 312 306 321 327 353 6 343 333 338 341 356 50 82 104 103 106 99 99 101 100 101 101 97 91 82 77 72 66 55 44 45 44 44 45 49 56 66 74 76 65 48 45 43
279 278 272 268 255 292 301 302 326 320 330 339 334 346 355 354 23 52 101 106 107 111 108 109 103 103 103 101 98 89 83 77 72 58 50 37 38 47 46 47 47 56 65 73 78 67 47 47 40
270 275 263 278 243 306 297 314 315 305 320 328 322 333 330 352 30 92 104 105 102 105 98 108 112 105 103 103 100 93 84 78 70 55 37 39 31 49 43 47 45 49 60 66 75 70 53 48 54
266 270 257 251 235 307 305 303 302 309 311 312 309 307 331 21 70 101 103 106 106 102 107 104 135 105 103 100 98 93 87 78 68 57 51 29 30 40 44 42 46 43 53 65 71 83 60 55 55
264 260 248 239 290 306 301 297 299 299 303 305 307 303 325 6 88 105 103 101 104 98 107 112 114 100 94 98 93 91 82 66 50 52 49 47 28 35 41 42 40 41 50 63 72 81 67 45 58
266 262 249 251 262 303 305 305 300 291 309 314 301 302 311 20 104 108 106 103 100 106 105 107 104 109 98 91 90 80 33 27 35 43 48 39 23 29 33 30 29 36 40 59 68 79 77 54 40
276 257 253 263 270 302 312 298 303 298 301 310 301 298 301 32 112 115 114 109 106 105 107 111 111 126 104 97 93 76 345 314 9 30 47 48 2 22 360 20 26 23 32 40 61 68 74 74 73
258 257 280 290 291 302 306 289 284 280 301 307 291 301 305 317 245 161 149 138 126 120 120 117 119 119 189 104 107 93 87 54 297 315 3 331 347 350 356 2 14 22 34 37 56 72 96 103 89
270 257 298 296 289 289 295 306 299 276 307 299 294 286 290 288 275 250 238 199 171 147 168 141 142 134 131 199 235 87 87 297 288 299 297 312 332 10 332 344 360 7 25 32 62 73 107 129 82
279 281 281 295 293 290 287 306 306 304 300 300 301 304 294 277 276 259 228 219 200 180 191 175 158 158 163 143 157 255 265 357 288 282 287 299 297 309 342 316 336 341 352 344 10 38 357 11 6
284 291 292 291 292 292 296 295 306 304 307 309 311 314 301 286 282 272 270 254 240 241 235 235 203 195 189 190 188 249 260 261 291 294 290 293 292 291 321 310 324 306 316 326 324 321 357 13 25
295 291 292 293 295 296 287 293 287 304 304 309 314 315 307 299 285 278 278 271 265 263 260 243 237 236 237 239 237 251 259 265 269 281 291 293 290 288 292 298 303 304 295 298 301 320 337 2 14
297 291 293 293 290 289 289 287 289 296 300 300 305 312 314 306 294 286 279 279 279 274 272 268 236 239 242 242 242 251 256 260 265 273 286 286 290 289 295 305 291 292 291 293 293 305 316 325 343
290 285 282 290 291 287 285 281 291 296 293 296 297 300 307 308 301 293 288 283 280 282 280 278 271 235 230 243 247 257 259 259 264 267 276 276 284 292 284 290 298 292 289 286 287 290 301 313 320
288 282 276 286 293 287 279 282 289 296 294 292 295 296 296 300 304 299 293 289 284 286 284 282 280 260 234 236 249 254 257 261 266 266 272 271 277 278 281 290 287 283 281 281 284 285 289 299 305
295 282 284 282 294 288 281 278 288 291 290 291 291 293 293 292 296 298 297 294 293 289 289 286 286 290 272 258 254 255 253 255 263 270 273 274 272 276 272 274 281 283 281 282 282 284 286 289 297
295 289 286 290 296 292 280 279 282 288 286 286 290 290 290 290 294 297 296 294 293 292 288 288 285 289 292 273 260 254 245 260 269 273 272 272 270 270 273 270 272 278 280 281 288 291 287 286 294
298 292 289 292 294 293 285 281 279 281 284 287 288 289 289 289 291 293 294 295 292 290 289 286 286 285 284 281 274 261 264 265 262 275 271 269 269 266 269 272 273 273 277 282 282 281 286 287 289
299 295 295 292 295 292 285 280 277 276 283 286 290 290 291 290 289 290 291 293 293 292 289 288 284 283 283 280 279 266 269 274 271 270 279 265 261 262 265 266 271 272 274 278 278 280 282 286 287
296 303 298 294 292 289 287 281 292 261 275 281 290 292 291 291 290 291 291 290 291 291 291 290 287 283 282 282 274 272 258 266 266 262 269 262 257 261 261 265 266 271 272 276 277 279 282 283 285
304 306 298 295 290 288 281 280 280 265 271 277 289 295 294 293 292 289 290 290 289 289 290 289 287 284 283 280 278 275 255 259 268 265 258 261 261 231 257 260 264 269 271 272 275 277 277 282 283
315 307 301 295 291 283 283 277 275 274 278 284 292 296 296 294 293 292 292 290 288 288 287 287 286 284 282 281 277 272 273 252 257 262 267 268 265 261 255 253 259 266 269 270 270 273 275 278 282
324 316 305 294 289 290 295 286 287 288 293 293 293 294 296 295 293 292 290 290 289 287 286 284 284 281 281 279 278 275 273 271 254 265 265 268 268 270 261 256 262 262 267 269 269 268 271 272 276
329 328 318 304 301 299 312 294 286 300 304 303 300 298 298 296 295 292 291 289 289 287 284 284 282 280 279 278 277 276 273 274 269 272 268 269 269 269 264 257 265 263 266 268 269 272 271 273 275
21 11 353 328 320 305 300 306 307 309 309 308 308 304 300 300 297 294 292 290 288 286 284 282 280 279 277 276 274 275 273 274 273 268 272 272 271 270 266 261 266 268 271 266 266 268 268 273 275
54 26 28 16 328 311 311 304 303 303 307 308 308 306 305 303 300 296 294 292 289 287 284 281 279 276 276 274 273 270 273 271 272 272 272 273 269 275 271 273 273 278 276 272 270 269 271 271 275
65 49 35 17 350 329 311 311 321 315 308 306 307 308 307 307 306 301 298 295 290 288 285 280 278 275 273 271 269 270 268 270 272 270 273 275 278 281 273 284 274 280 285 287 280 273 277 276 280
56 51 46 39 25 2 341 321 323 321 319 313 308 309 311 311 311 309 304 298 293 289 284 281 277 274 272 269 267 266 266 267 267 269 271 278 275 284 288 287 290 290 288 286 281 281 273 276 288